Location: Newark
(41.0400°S, 62.7845°W)
Time: 19:04:50
(UTC+00:00)

ISS - Pass Details

Date: 24 October 2021
Orbit: 417 x 423 km, 51.6° (Epoch: 29 November)

Event Time Altitude Azimuth Distance (km) Brightness Sun altitude
Rises 01:09:31 0° 233° (SW) 2,416 1.5 -24.8°
Reaches altitude 10° 01:12:14 10° 210° (SSW) 1,548 0.1 -25.2°
Maximum altitude 01:14:31 16° 169° (S) 1,218 -1.1 -25.5°
Enters shadow 01:14:46 16° 164° (SSE) 1,222 -1.1 -25.5°
